Simultaneous Nadir Overpasses (SNOs) Predictions

Prediction of SNOs between GOES-15 and METOP-B Satellite Orbit:

Table of predicted SNOs for the next 14.0 days since TLE Epoch: 11/28/2025
Index Date Time (GOES-15) GOES-15 Lat,Lon METOP-B Lat,Lon Distance(km) Time Diff (sec)
1 11/29/2025 16:49:10 -0.68, 61.60 -0.31, 63.14 176.38 80
2 12/01/2025 05:05:31 0.64, 61.48 1.27, 58.53 336.01 80
3 12/02/2025 04:47:36 0.67, 61.47 0.19, 63.51 232.47 80
4 12/03/2025 17:04:05 -0.63, 61.55 -1.23, 58.88 305.18 80
5 12/04/2025 16:46:10 -0.66, 61.55 -0.15, 63.85 262.22 80
6 12/06/2025 05:02:32 0.62, 61.45 1.10, 59.24 252.20 80
7 12/07/2025 04:44:37 0.65, 61.45 0.01, 64.21 315.75 80
8 12/08/2025 17:01:05 -0.61, 61.53 -1.05, 59.58 222.00 80
9 12/09/2025 16:43:11 -0.64, 61.53 0.04, 64.56 345.38 80
10 12/11/2025 04:59:31 0.60, 61.44 0.95, 59.96 169.75 80
11 12/12/2025 04:41:37 0.63, 61.43 -0.15, 64.93 398.41 80
